St. Marys, AK

7:57 AM AKST on November 21, 2019 (GMT -0900)
Saint Mary's

Weather History for PASM - September, 2019

Change the Weather History Date:

Sunday, September 1, 2019

  Actual Average Record
Temperature  
Mean Temperature 56 °F -  
Max Temperature 53 °F 51 °F 71 °F (2016)
Min Temperature 51 °F 40 °F 33 °F (2005)
Degree Days  
Heating Degree Days 9    
Growing Degree Days 6 (Base 50)    
Moisture  
Dew Point 52 °F    
Average Humidity 91    
Maximum Humidity 100    
Minimum Humidity 75    
Precipitation  
Precipitation 0.17 in - - ()
Sea Level Pressure  
Sea Level Pressure 29.25 in    
Wind  
Wind Speed 15 mph ()    
Max Wind Speed 21 mph    
Max Gust Speed 29 mph    
Visibility 9.9 miles    
Events Rain    
Averages and records for this station are not official NWS values.
T = Trace of Precipitation, MM = Missing Value Source: Averaged Metar Reports

Daily Weather History Graph

Daily Weather History Graph

Search for Another Location

Airport or City:

Astronomy

Sep. 01, 2019 Rise Set
Actual Time 7:42 AM AKDT 10:02 PM AKDT
Civil Twilight 6:53 AM AKDT 10:50 PM AKDT
Nautical Twilight 5:48 AM AKDT 11:54 PM AKDT
Astronomical Twilight 4:12 AM AKDT 1:26 AM AKDT
Moon 11:07 AM AKDT (9/1) 11:05 PM AKDT (9/1)
Length of Visible Light 15h 56m
Length of Day
14h 19m
Waxing Crescent, 9% of the Moon is Illuminated
Sep 1
Waxing Crescent
Sep 5
First Quarter
Sep 13
Full
Sep 21
Last Quarter
Sep 28
New

Hourly Weather History & Observations

Time (AKDT) Temp. Dew Point Humidity Pressure Visibility Wind Dir Wind Speed Gust Speed Precip Events Conditions
12:02 AM 53.1 °F 50.0 °F 89% 29.49 in 10.0 mi East 15.0 mph 23.0 mph 0.00 in Rain Light Rain
1:02 AM 52.0 °F 50.0 °F 93% 29.46 in 10.0 mi East 16.1 mph - 0.00 in Rain Light Rain
2:51 AM 51.8 °F 51.8 °F 100% 29.39 in 8.0 mi East 16.1 mph 23.0 mph 0.05 in Rain Light Rain
3:02 AM 51.8 °F 51.8 °F 100% 29.38 in 10.0 mi East 16.1 mph - 0.06 in Rain Light Rain
3:09 AM 51.8 °F 51.8 °F 100% 29.37 in 10.0 mi East 20.7 mph 25.3 mph 0.06 in Rain Light Rain
3:17 AM 51.8 °F 51.8 °F 100% 29.37 in 10.0 mi East 18.4 mph 25.3 mph 0.06 in Rain Light Rain
3:31 AM 51.8 °F 51.8 °F 100% 29.36 in 10.0 mi East 17.3 mph 23.0 mph 0.06 in   Overcast
3:42 AM 52.0 °F 51.1 °F 97% 29.38 in 10.0 mi East 17.3 mph 25.3 mph 0.06 in Rain Light Rain
4:02 AM 53.1 °F 51.1 °F 93% 29.36 in 10.0 mi East 18.4 mph 26.5 mph 0.00 in Rain Light Rain
4:48 AM 53.6 °F 51.8 °F 94% 29.32 in 10.0 mi East 19.6 mph 25.3 mph 0.01 in   Overcast
5:02 AM 53.1 °F 51.1 °F 93% 29.33 in 10.0 mi East 19.6 mph 25.3 mph 0.01 in   Overcast
5:24 AM 53.6 °F 51.8 °F 94% 29.30 in 10.0 mi East 18.4 mph 26.5 mph N/A   Overcast
5:52 AM 53.6 °F 51.8 °F 94% 29.29 in 10.0 mi East 18.4 mph 24.2 mph N/A   Overcast
6:02 AM 53.1 °F 51.1 °F 93% 29.30 in 10.0 mi East 20.7 mph 27.6 mph N/A   Overcast
6:22 AM 53.6 °F 51.8 °F 94% 29.28 in 10.0 mi East 18.4 mph 24.2 mph N/A   Overcast
7:02 AM 52.0 °F 51.1 °F 97% 29.29 in 10.0 mi East 17.3 mph 25.3 mph N/A   Overcast
9:02 AM 54.0 °F 50.0 °F 86% 29.21 in 10.0 mi East 20.7 mph 28.8 mph N/A   Clear
10:02 AM 54.0 °F 51.1 °F 90% 29.21 in 10.0 mi East 18.4 mph 26.5 mph N/A   Mostly Cloudy
12:02 PM 55.9 °F 53.1 °F 90% 29.19 in 10.0 mi East 12.7 mph - 0.01 in Rain Light Rain
1:02 PM 57.0 °F 53.1 °F 87% 29.18 in 10.0 mi East 12.7 mph - 0.00 in Rain Light Rain
2:02 PM 57.0 °F 53.1 °F 87% 29.16 in 10.0 mi East 17.3 mph 23.0 mph 0.01 in Rain Light Rain
3:02 PM 57.9 °F 53.1 °F 84% 29.15 in 10.0 mi ESE 19.6 mph 28.8 mph 0.00 in Rain Light Rain
4:02 PM 59.0 °F 54.0 °F 83% 29.13 in 10.0 mi East 20.7 mph 28.8 mph 0.00 in   Mostly Cloudy
5:02 PM 60.1 °F 53.1 °F 78% 29.11 in 10.0 mi East 17.3 mph 24.2 mph N/A   Mostly Cloudy
6:02 PM 61.0 °F 53.1 °F 75% 29.10 in 10.0 mi East 19.6 mph 24.2 mph 0.00 in   Partly Cloudy
7:02 PM 59.0 °F 51.1 °F 75% 29.10 in 10.0 mi East 17.3 mph 26.5 mph N/A   Overcast
8:02 PM 57.0 °F 52.0 °F 83% 29.11 in 10.0 mi ESE 13.8 mph - 0.00 in Rain Light Rain
9:02 PM 55.0 °F 53.1 °F 93% 29.10 in 10.0 mi East 10.4 mph - 0.07 in Rain Light Rain
10:02 PM 54.0 °F 52.0 °F 93% 29.11 in 10.0 mi East 10.4 mph - 0.00 in Rain Light Rain
11:02 PM 53.1 °F 51.1 °F 93% 29.11 in 10.0 mi East 9.2 mph - 0.01 in   Mostly Cloudy